Tracking 29781 objects as of 15-Oct-2024
HD Live streaming from Space Station
objects crossing your sky now

DELTA 1 DEB

Track DELTA 1 DEB now!
10-day predictions


NORAD ID: 26036
Int'l Code: 1975-052KA
Perigee: 649.6 km
Apogee: 776.3 km
Inclination: 99.9 °
Period: 98.9 minutes
Semi major axis: 7083 km
RCS: 0.0044 m2 (small)
Launch date: June 12, 1975
Source: United States (US)
Launch site: AIR FORCE WESTERN TEST RANGE (AFWTR)

Note: This is SATELLITE DEBRIS
Your satellite tracking list
Your tracking list is empty




NASA's NSSDC Master Catalog

Two Line Element Set (TLE):
1 26036U 75052KA  24284.93242941  .00134998  00000-0  28474-1 0  9990
2 26036  99.9449   7.8600 0089407 106.5314 254.5723 14.56093013344249
Source of the keplerian elements: AFSPC